CSZ8952 ZSWZ-ZGSZ

Flight info

Callsign CSZ8952
Flight time N/A
Altitude 34100
Route M078S1040 RUPOX B221 LJG A470 BEBEM R200 GUBLO
Aircraft A320/M-SDE2E3FGHIRWZ/LB1

Departure

Time N/A
Airport Wenzhou Longwan International Airport (ZSWZ)

Arrival

Time 2026-04-24 14:12
Airport Shenzhen Bao'an International Airport (ZGSZ)
Time Latitude Longitude Altitude Speed Heading
2026-04-24 13:47 22.90235 115.89826 34137 ft 378 kts 262°
2026-04-24 13:48 22.88938 115.77440 34134 ft 378 kts 262°
2026-04-24 13:49 22.88338 115.71761 33792 ft 379 kts 262°
2026-04-24 13:49 22.88034 115.68914 33533 ft 381 kts 262°
2026-04-24 13:49 22.87730 115.66052 33277 ft 384 kts 262°
2026-04-24 13:50 22.87425 115.63168 33036 ft 386 kts 261°
2026-04-24 13:50 22.87118 115.60272 32785 ft 388 kts 261°
2026-04-24 13:50 22.86811 115.57360 32537 ft 390 kts 261°
2026-04-24 13:50 22.86510 115.54432 32290 ft 392 kts 262°
2026-04-24 13:51 22.86213 115.51484 32047 ft 395 kts 262°
2026-04-24 13:51 22.85917 115.48517 31805 ft 397 kts 262°
2026-04-24 13:51 22.85618 115.45533 31558 ft 400 kts 262°
2026-04-24 13:51 22.85313 115.42510 31293 ft 407 kts 262°
2026-04-24 13:52 22.85003 115.39435 31051 ft 414 kts 262°
2026-04-24 13:52 22.84689 115.36318 30192 ft 419 kts 262°
2026-04-24 13:52 22.84368 115.33156 29056 ft 425 kts 262°
2026-04-24 13:52 22.84046 115.29981 28257 ft 421 kts 262°
2026-04-24 13:53 22.83729 115.26841 27517 ft 417 kts 262°
2026-04-24 13:53 22.83413 115.23735 26789 ft 413 kts 262°
2026-04-24 13:53 22.83101 115.20661 26083 ft 409 kts 262°
2026-04-24 13:53 22.82791 115.17612 25384 ft 405 kts 262°
2026-04-24 13:54 22.82482 115.14587 24697 ft 402 kts 263°
2026-04-24 13:54 22.82172 115.11585 24014 ft 400 kts 263°
2026-04-24 13:54 22.81864 115.08599 23288 ft 397 kts 263°
2026-04-24 13:54 22.81560 115.05638 22615 ft 393 kts 263°
2026-04-24 13:55 22.81264 115.02752 22028 ft 388 kts 263°
2026-04-24 13:55 22.80966 114.99864 21455 ft 383 kts 263°
2026-04-24 13:55 22.80669 114.97021 20907 ft 377 kts 263°
2026-04-24 13:55 22.80375 114.94219 20385 ft 372 kts 263°
2026-04-24 13:56 22.80084 114.91453 19874 ft 367 kts 263°
2026-04-24 13:56 22.79795 114.88717 19380 ft 363 kts 263°
2026-04-24 13:56 22.79512 114.86009 18890 ft 360 kts 263°
2026-04-24 13:56 22.79322 114.84195 18553 ft 358 kts 263°
2026-04-24 13:57 22.78952 114.80662 17837 ft 355 kts 263°
2026-04-24 13:57 22.78674 114.78021 17323 ft 351 kts 263°
2026-04-24 13:57 22.78286 114.75423 16806 ft 348 kts 256°
2026-04-24 13:57 22.77460 114.72964 16290 ft 347 kts 246°
2026-04-24 13:58 22.76398 114.70619 15767 ft 346 kts 245°
2026-04-24 13:58 22.75342 114.68282 15249 ft 345 kts 246°
2026-04-24 13:58 22.74292 114.65949 14713 ft 344 kts 246°
2026-04-24 13:58 22.73244 114.63620 14179 ft 344 kts 246°
2026-04-24 13:59 22.72196 114.61292 13620 ft 344 kts 246°
2026-04-24 13:59 22.71152 114.58967 13055 ft 342 kts 245°
2026-04-24 13:59 22.70117 114.56659 12506 ft 340 kts 245°
2026-04-24 13:59 22.69086 114.54364 11966 ft 338 kts 245°
2026-04-24 14:00 22.68061 114.52084 11415 ft 336 kts 245°
2026-04-24 14:00 22.67041 114.49815 10959 ft 334 kts 245°
2026-04-24 14:00 22.66042 114.47596 10814 ft 322 kts 245°
2026-04-24 14:00 22.65085 114.45477 10825 ft 305 kts 245°
2026-04-24 14:01 22.64182 114.43467 10788 ft 290 kts 247°
2026-04-24 14:01 22.63571 114.41433 10567 ft 282 kts 259°
2026-04-24 14:01 22.63278 114.39344 10260 ft 280 kts 262°
2026-04-24 14:01 22.63004 114.37271 10089 ft 278 kts 261°
2026-04-24 14:02 22.62724 114.35202 9858 ft 279 kts 261°
2026-04-24 14:02 22.62440 114.33106 9280 ft 279 kts 261°
2026-04-24 14:02 22.62158 114.31041 8621 ft 277 kts 261°
2026-04-24 14:02 22.61879 114.29004 8032 ft 272 kts 260°
2026-04-24 14:03 22.61606 114.26997 7472 ft 270 kts 261°
2026-04-24 14:03 22.61332 114.24971 7029 ft 272 kts 261°
2026-04-24 14:03 22.61061 114.22964 6717 ft 268 kts 260°
2026-04-24 14:03 22.60789 114.20972 6309 ft 267 kts 261°
2026-04-24 14:04 22.60517 114.18981 5802 ft 269 kts 260°
2026-04-24 14:04 22.60243 114.16988 5368 ft 262 kts 260°
2026-04-24 14:04 22.59974 114.15030 5208 ft 263 kts 260°
2026-04-24 14:04 22.59707 114.13100 5081 ft 263 kts 260°
2026-04-24 14:05 22.59435 114.11145 4971 ft 263 kts 259°
2026-04-24 14:05 22.58834 114.09299 4916 ft 260 kts 241°
2026-04-24 14:05 22.57987 114.07561 4917 ft 261 kts 242°
2026-04-24 14:05 22.57145 114.05822 4924 ft 260 kts 242°
2026-04-24 14:06 22.56311 114.04088 4712 ft 261 kts 242°
2026-04-24 14:06 22.55458 114.02318 3998 ft 270 kts 242°
2026-04-24 14:06 22.54583 114.00503 3491 ft 272 kts 242°
2026-04-24 14:06 22.53718 113.98710 3172 ft 266 kts 243°
2026-04-24 14:07 22.52880 113.96959 2879 ft 259 kts 244°
2026-04-24 14:07 22.52104 113.95246 2554 ft 246 kts 244°
2026-04-24 14:07 22.51370 113.93642 2422 ft 230 kts 243°
2026-04-24 14:07 22.50687 113.92149 2356 ft 214 kts 249°
2026-04-24 14:08 22.50456 113.90645 2352 ft 199 kts 272°
2026-04-24 14:08 22.50758 113.89217 2298 ft 194 kts 294°
2026-04-24 14:08 22.51508 113.88048 2203 ft 185 kts 317°
2026-04-24 14:08 22.52522 113.87304 2138 ft 172 kts 335°
2026-04-24 14:09 22.53578 113.86728 1977 ft 169 kts 336°
2026-04-24 14:09 22.54620 113.86159 1774 ft 166 kts 336°
2026-04-24 14:09 22.55648 113.85598 1555 ft 167 kts 332°
2026-04-24 14:09 22.56680 113.85034 1319 ft 166 kts 336°
2026-04-24 14:10 22.57356 113.84663 1180 ft 160 kts 336°
2026-04-24 14:10 22.58586 113.83989 926 ft 146 kts 335°
2026-04-24 14:10 22.59503 113.83487 730 ft 142 kts 336°
2026-04-24 14:10 22.60370 113.83014 560 ft 138 kts 336°
2026-04-24 14:11 22.61220 113.82551 370 ft 137 kts 335°
2026-04-24 14:11 22.62058 113.82088 193 ft 138 kts 334°
2026-04-24 14:11 22.63649 113.81214 15 ft 94 kts 333°
2026-04-24 14:12 22.64081 113.80977 16 ft 47 kts 333°
2026-04-24 14:12 22.64231 113.80879 15 ft 23 kts 323°
2026-04-24 14:12 22.64304 113.80779 16 ft 12 kts 303°
2026-04-24 14:12 22.64347 113.80707 16 ft 11 kts 302°
2026-04-24 14:13 22.64352 113.80661 15 ft 9 kts 250°
2026-04-24 14:13 22.64320 113.80589 15 ft 7 kts 246°
2026-04-24 14:13 22.64285 113.80551 15 ft 7 kts 186°
2026-04-24 14:13 22.64233 113.80572 15 ft 11 kts 155°
2026-04-24 14:14 22.64148 113.80617 15 ft 15 kts 153°
2026-04-24 14:14 22.64057 113.80667 16 ft 14 kts 153°
2026-04-24 14:14 22.63894 113.80758 15 ft 12 kts 153°
2026-04-24 14:15 22.63826 113.80795 15 ft 10 kts 153°
2026-04-24 14:15 22.63767 113.80827 15 ft 9 kts 153°
2026-04-24 14:15 22.63714 113.80857 15 ft 10 kts 153°
2026-04-24 14:15 22.63626 113.80905 15 ft 17 kts 153°
2026-04-24 14:16 22.63515 113.80967 15 ft 19 kts 153°
2026-04-24 14:16 22.63392 113.81035 15 ft 21 kts 153°
2026-04-24 14:16 22.63257 113.81108 15 ft 23 kts 155°
2026-04-24 14:17 22.63047 113.81222 15 ft 12 kts 153°
2026-04-24 14:17 22.62978 113.81259 15 ft 10 kts 153°
2026-04-24 14:17 22.62919 113.81236 15 ft 4 kts 253°
2026-04-24 14:18 22.62916 113.81206 15 ft 4 kts 265°
2026-04-24 14:18 22.62915 113.81183 16 ft 3 kts 266°
2026-04-24 14:18 22.62914 113.81165 15 ft 2 kts 265°
2026-04-24 14:18 22.62913 113.81160 15 ft 0 kts 265°